sat.trackr.live / text

‹ back to catalog

QIANFAN-227

NORAD 69856 · 2026-155J

PAYLOAD ACTIVE UNKNOWN

§ Identity

Operator
Country
PRC
Launch date
2026-07-05
Launch site
WSC
Launch vehicle
Mass (kg)
RCS (m²)

External: N2YO · Heavens-Above · Gunter

§ Orbital elements

Epoch: 2026-09-19T20:11:09.456288Z

Period
106.99 min
Inclination
89.0080°
Eccentricity
0.0037319
Mean motion
13.45879698 rev/d
Perigee alt
1,059.6 km
Apogee alt
1,115.3 km
Semi-major
7,465.6 km
B*
-3.1727e+0
RAAN
53.7958°
Arg perigee
11.3010°
Mean anomaly
348.8968°
Rev number
1,063

§ Raw data

QIANFAN-2271 69856U 26155J   26262.84108167 -.01777029  00000+0 -31727+1 0  99902 69856  89.0080  53.7958 0037319  11.3010 348.8968 13.45879698 10633

JSON: /api/v1/satellites/69856 · /tle

For live sub-satellite position, see the globe view (requires WebGL).

§ Visibility from observer

Set your observer location to see the next 7 days of passes ≥ 10°. The values pass through the URL so the page stays shareable.

No JS? Fill the form by hand. The geolocation button needs JavaScript.